This is the latest recevied weather packets stored in our database for station/object N8HON. If no packets are shown the sender has not sent any weather packets the latest 10 day(s).
| Time | Temp. | Humidity | Pressure | Rain* | Wind** | Luminosity | Snow |
|---|---|---|---|---|---|---|---|
| 1777489266 | 15.56° C | 96% | 1007.3 hPa | 0 mm | - | 74 W/m² | - |
| 1777488963 | 15.56° C | 96% | 1007.2 hPa | 0 mm | - | 47 W/m² | - |
| 1777488660 | 15.56° C | 95% | 1007.2 hPa | 0 mm | - | 92 W/m² | - |
| 1777488358 | 16.11° C | 95% | 1007.3 hPa | 0 mm | - | 65 W/m² | - |
| 1777488056 | 15.56° C | 95% | 1007.5 hPa | 0 mm | - | 108 W/m² | - |
| 1777487753 | 15.56° C | 95% | 1007.4 hPa | 0 mm | - | 124 W/m² | - |
| 1777487451 | 16.11° C | 95% | 1007.5 hPa | 0 mm | - | 126 W/m² | - |
| 1777487148 | 15.56° C | 95% | 1007.3 hPa | 0 mm | - | 172 W/m² | - |
| 1777486844 | 15.56° C | 95% | 1007.4 hPa | 0 mm | - | 184 W/m² | - |
| 1777486541 | 15.56° C | 96% | 1007.7 hPa | 0 mm | - | 191 W/m² | - |
| 1777486239 | 15.56° C | 96% | 1007.6 hPa | 0 mm | - | 167 W/m² | - |
| 1777485936 | 16.11° C | 97% | 1007.7 hPa | 0 mm | - | 223 W/m² | - |
| 1777485632 | 16.11° C | 97% | 1007.6 hPa | 0 mm | - | 285 W/m² | - |
| 1777485327 | 15.56° C | 98% | 1007.9 hPa | 0 mm | - | 232 W/m² | - |
| 1777485024 | 15.56° C | 98% | 1008.3 hPa | 1.78 mm | - | 204 W/m² | - |
| 1777484721 | 16.11° C | 99% | 1008.3 hPa | 0 mm | - | 246 W/m² | - |
| 1777484418 | 15.56° C | 99% | 1008.2 hPa | 0 mm | - | 310 W/m² | - |
| 1777484115 | 15° C | 98% | 1008.4 hPa | 1.27 mm | - | 238 W/m² | - |
| 1777483810 | 15° C | 98% | 1008.5 hPa | 1.27 mm | - | 128 W/m² | - |
| 1777483502 | 15° C | 98% | 1008.6 hPa | 0 mm | - | 147 W/m² | - |
| 1777483201 | 15° C | 98% | 1008.8 hPa | 0 mm | - | 185 W/m² | - |
| 1777482898 | 15° C | 98% | 1008.9 hPa | 1.78 mm | - | 157 W/m² | - |
| 1777482594 | 15° C | 98% | 1008.9 hPa | 1.78 mm | - | 121 W/m² | - |
| 1777482292 | 15° C | 98% | 1009.2 hPa | 1.78 mm | - | 105 W/m² | - |
| 1777481989 | 15° C | 98% | 1009.2 hPa | 1.78 mm | - | 90 W/m² | - |
* Rain latest hour (hover to see other rain measurements)
** Current wind speed in m/s (hover to see current wind gust speed)